DAL3112 KSAV-KATL

Flight info

Callsign DAL3112
Flight time 0h 41m
Altitude 22000
Route SMALZ TYFTR JJEDI4
Aircraft B739/M-SDE2E3FGHIRWXY/LB1

Departure

Time 2026-04-17 00:12
Airport Savannah Hilton Head International Airport (KSAV)

Arrival

Time 2026-04-17 00:54
Airport Hartsfield Jackson Atlanta International Airport (KATL)
Time Latitude Longitude Altitude Speed Heading
2026-04-16 23:55 32.13605 -81.20720 35 ft 0 kts 201°
2026-04-17 00:05 32.13616 -81.20715 35 ft 3 kts 205°
2026-04-17 00:05 32.13632 -81.20709 36 ft 3 kts 171°
2026-04-17 00:05 32.13652 -81.20713 34 ft 3 kts 174°
2026-04-17 00:05 32.13672 -81.20715 32 ft 3 kts 174°
2026-04-17 00:06 32.13678 -81.20716 32 ft 6 kts 171°
2026-04-17 00:08 32.13673 -81.20711 34 ft 2 kts 139°
2026-04-17 00:08 32.13671 -81.20658 35 ft 12 kts 87°
2026-04-17 00:08 32.13671 -81.20524 40 ft 16 kts 91°
2026-04-17 00:09 32.13661 -81.20431 46 ft 8 kts 141°
2026-04-17 00:09 32.13607 -81.20419 50 ft 8 kts 175°
2026-04-17 00:09 32.13573 -81.20378 49 ft 8 kts 100°
2026-04-17 00:09 32.13573 -81.20314 57 ft 9 kts 90°
2026-04-17 00:10 32.13572 -81.20235 61 ft 12 kts 90°
2026-04-17 00:10 32.13571 -81.20147 65 ft 0 kts 90°
2026-04-17 00:11 32.13571 -81.20129 67 ft 7 kts 90°
2026-04-17 00:11 32.13570 -81.20037 68 ft 2 kts 98°
2026-04-17 00:11 32.13550 -81.20016 68 ft 8 kts 162°
2026-04-17 00:12 32.13399 -81.20014 61 ft 55 kts 180°
2026-04-17 00:12 32.12736 -81.20008 52 ft 131 kts 179°
2026-04-17 00:12 32.11640 -81.20004 280 ft 170 kts 180°
2026-04-17 00:12 32.10517 -81.20010 1311 ft 161 kts 180°
2026-04-17 00:13 32.09327 -81.19999 1926 ft 179 kts 189°
2026-04-17 00:13 32.08238 -81.20728 2355 ft 195 kts 228°
2026-04-17 00:13 32.07569 -81.22212 2603 ft 219 kts 259°
2026-04-17 00:13 32.07834 -81.24017 3031 ft 236 kts 295°
2026-04-17 00:14 32.09018 -81.25481 3344 ft 260 kts 324°
2026-04-17 00:14 32.10589 -81.26592 4088 ft 264 kts 327°
2026-04-17 00:14 32.12187 -81.27672 4986 ft 265 kts 327°
2026-04-17 00:14 32.13799 -81.28769 5735 ft 272 kts 327°
2026-04-17 00:15 32.15457 -81.29911 6457 ft 279 kts 327°
2026-04-17 00:15 32.17132 -81.31071 7285 ft 278 kts 327°
2026-04-17 00:15 32.18776 -81.32220 8150 ft 277 kts 326°
2026-04-17 00:15 32.20436 -81.33390 8995 ft 278 kts 326°
2026-04-17 00:16 32.22093 -81.34562 9836 ft 278 kts 326°
2026-04-17 00:16 32.23767 -81.35751 10429 ft 287 kts 326°
2026-04-17 00:16 32.25551 -81.37026 10586 ft 311 kts 326°
2026-04-17 00:16 32.27466 -81.38395 10749 ft 332 kts 326°
2026-04-17 00:17 32.29506 -81.39853 10906 ft 351 kts 326°
2026-04-17 00:17 32.31630 -81.41369 11292 ft 360 kts 326°
2026-04-17 00:17 32.33788 -81.42910 11846 ft 364 kts 326°
2026-04-17 00:17 32.35963 -81.44462 12441 ft 366 kts 326°
2026-04-17 00:18 32.38152 -81.46027 13024 ft 369 kts 326°
2026-04-17 00:18 32.40359 -81.47606 13592 ft 373 kts 326°
2026-04-17 00:18 32.42585 -81.49202 14105 ft 376 kts 326°
2026-04-17 00:18 32.44704 -81.51012 14552 ft 375 kts 311°
2026-04-17 00:19 32.46152 -81.53550 15040 ft 372 kts 291°
2026-04-17 00:19 32.46883 -81.56476 15540 ft 372 kts 277°
2026-04-17 00:19 32.46888 -81.59541 16008 ft 374 kts 263°
2026-04-17 00:19 32.46539 -81.62604 16498 ft 377 kts 261°
2026-04-17 00:20 32.46140 -81.65683 16966 ft 380 kts 261°
2026-04-17 00:20 32.45731 -81.68777 17496 ft 381 kts 261°
2026-04-17 00:20 32.45332 -81.71850 17980 ft 384 kts 261°
2026-04-17 00:20 32.44930 -81.75023 18418 ft 387 kts 261°
2026-04-17 00:21 32.44541 -81.78147 18826 ft 389 kts 261°
2026-04-17 00:21 32.44151 -81.81323 19274 ft 390 kts 261°
2026-04-17 00:21 32.43761 -81.84504 19709 ft 391 kts 261°
2026-04-17 00:21 32.43371 -81.87697 20136 ft 393 kts 261°
2026-04-17 00:22 32.42588 -81.94084 21279 ft 388 kts 261°
2026-04-17 00:22 32.42200 -81.97239 21887 ft 385 kts 261°
2026-04-17 00:22 32.41812 -82.00391 22045 ft 387 kts 261°
2026-04-17 00:23 32.41424 -82.03529 22075 ft 385 kts 261°
2026-04-17 00:23 32.41042 -82.06619 22068 ft 385 kts 261°
2026-04-17 00:23 32.40652 -82.09757 22081 ft 385 kts 262°
2026-04-17 00:23 32.40496 -82.12918 22061 ft 387 kts 275°
2026-04-17 00:24 32.40986 -82.16053 22082 ft 388 kts 280°
2026-04-17 00:24 32.41563 -82.19171 22077 ft 388 kts 281°
2026-04-17 00:24 32.42143 -82.22293 22074 ft 389 kts 280°
2026-04-17 00:24 32.42716 -82.25416 22068 ft 389 kts 280°
2026-04-17 00:25 32.43282 -82.28543 22068 ft 388 kts 280°
2026-04-17 00:25 32.43840 -82.31668 22067 ft 388 kts 280°
2026-04-17 00:25 32.44394 -82.34794 22069 ft 388 kts 280°
2026-04-17 00:25 32.44943 -82.37916 22066 ft 387 kts 280°
2026-04-17 00:26 32.45490 -82.41037 22074 ft 387 kts 279°
2026-04-17 00:26 32.45850 -82.43095 22072 ft 386 kts 279°
2026-04-17 00:26 32.46395 -82.46212 22067 ft 385 kts 279°
2026-04-17 00:26 32.46935 -82.49313 22065 ft 385 kts 279°
2026-04-17 00:27 32.47474 -82.52413 22067 ft 384 kts 279°
2026-04-17 00:27 32.48011 -82.55506 22065 ft 383 kts 280°
2026-04-17 00:27 32.48547 -82.58603 22068 ft 383 kts 279°
2026-04-17 00:27 32.49084 -82.61698 22072 ft 383 kts 279°
2026-04-17 00:28 32.49620 -82.64794 22074 ft 383 kts 279°
2026-04-17 00:28 32.50155 -82.67887 22075 ft 383 kts 279°
2026-04-17 00:28 32.50691 -82.70989 22078 ft 384 kts 279°
2026-04-17 00:28 32.51224 -82.74086 22077 ft 384 kts 279°
2026-04-17 00:29 32.51759 -82.77193 22081 ft 384 kts 279°
2026-04-17 00:29 32.52291 -82.80293 22091 ft 383 kts 279°
2026-04-17 00:29 32.52821 -82.83384 22084 ft 383 kts 279°
2026-04-17 00:29 32.53350 -82.86474 22073 ft 382 kts 279°
2026-04-17 00:30 32.53870 -82.89515 22084 ft 381 kts 279°
2026-04-17 00:30 32.54395 -82.92591 22079 ft 381 kts 279°
2026-04-17 00:30 32.54919 -82.95664 22089 ft 380 kts 279°
2026-04-17 00:30 32.55441 -82.98736 22083 ft 380 kts 279°
2026-04-17 00:31 32.55962 -83.01801 22086 ft 380 kts 279°
2026-04-17 00:31 32.56482 -83.04870 22083 ft 380 kts 279°
2026-04-17 00:31 32.57003 -83.07945 22083 ft 380 kts 279°
2026-04-17 00:31 32.57522 -83.11011 22078 ft 380 kts 279°
2026-04-17 00:32 32.58042 -83.14091 22086 ft 380 kts 279°
2026-04-17 00:32 32.58622 -83.17149 22074 ft 382 kts 286°
2026-04-17 00:32 32.59839 -83.19965 22101 ft 387 kts 300°
2026-04-17 00:32 32.61626 -83.22380 22092 ft 393 kts 312°
2026-04-17 00:33 32.63671 -83.24541 22079 ft 394 kts 314°
2026-04-17 00:33 32.65729 -83.26625 22059 ft 382 kts 314°
2026-04-17 00:33 32.67718 -83.28621 22042 ft 367 kts 314°
2026-04-17 00:33 32.69647 -83.30576 21725 ft 361 kts 314°
2026-04-17 00:34 32.71534 -83.32511 21306 ft 357 kts 313°
2026-04-17 00:34 32.73399 -83.34439 20897 ft 353 kts 313°
2026-04-17 00:34 32.75246 -83.36357 20448 ft 351 kts 313°
2026-04-17 00:34 32.77079 -83.38267 20012 ft 350 kts 313°
2026-04-17 00:35 32.78903 -83.40169 19637 ft 346 kts 313°
2026-04-17 00:35 32.80688 -83.42028 19184 ft 345 kts 313°
2026-04-17 00:35 32.82471 -83.43891 18723 ft 346 kts 313°
2026-04-17 00:35 32.84281 -83.45783 18229 ft 346 kts 313°
2026-04-17 00:36 32.86095 -83.47679 17726 ft 346 kts 314°
2026-04-17 00:36 32.87898 -83.49564 17273 ft 344 kts 314°
2026-04-17 00:36 32.89690 -83.51439 16821 ft 342 kts 314°
2026-04-17 00:36 32.91476 -83.53310 16347 ft 341 kts 314°
2026-04-17 00:37 32.93257 -83.55177 15886 ft 341 kts 314°
2026-04-17 00:37 32.95031 -83.57036 15432 ft 339 kts 314°
2026-04-17 00:37 32.96806 -83.58895 14927 ft 340 kts 314°
2026-04-17 00:37 32.98580 -83.60752 14480 ft 338 kts 314°
2026-04-17 00:38 33.00347 -83.62603 14069 ft 337 kts 315°
2026-04-17 00:38 33.02106 -83.64446 13602 ft 336 kts 315°
2026-04-17 00:38 33.03861 -83.66287 13145 ft 334 kts 315°
2026-04-17 00:38 33.05582 -83.68093 12709 ft 333 kts 315°
2026-04-17 00:39 33.07312 -83.69910 12280 ft 330 kts 315°
2026-04-17 00:39 33.09029 -83.71715 11863 ft 328 kts 315°
2026-04-17 00:39 33.10727 -83.73499 11647 ft 320 kts 315°
2026-04-17 00:39 33.12369 -83.75223 11495 ft 310 kts 315°
2026-04-17 00:40 33.13964 -83.76900 11353 ft 301 kts 315°
2026-04-17 00:40 33.15525 -83.78549 10984 ft 300 kts 314°
2026-04-17 00:40 33.17083 -83.80197 10654 ft 298 kts 315°
2026-04-17 00:40 33.18637 -83.81840 10309 ft 297 kts 315°
2026-04-17 00:41 33.20141 -83.83514 10082 ft 291 kts 311°
2026-04-17 00:41 33.21546 -83.85191 9949 ft 281 kts 311°
2026-04-17 00:41 33.22904 -83.86831 9613 ft 280 kts 311°
2026-04-17 00:41 33.24272 -83.88481 9287 ft 278 kts 311°
2026-04-17 00:42 33.25642 -83.90123 8916 ft 279 kts 311°
2026-04-17 00:42 33.27014 -83.91763 8572 ft 279 kts 312°
2026-04-17 00:42 33.28368 -83.93378 8239 ft 278 kts 312°
2026-04-17 00:42 33.29746 -83.95022 8044 ft 272 kts 312°
2026-04-17 00:43 33.31043 -83.96571 8011 ft 264 kts 312°
2026-04-17 00:43 33.32323 -83.98101 8004 ft 255 kts 312°
2026-04-17 00:43 33.33544 -83.99562 7945 ft 245 kts 311°
2026-04-17 00:43 33.34776 -84.01039 7683 ft 253 kts 312°
2026-04-17 00:44 33.36131 -84.02435 7507 ft 264 kts 330°
2026-04-17 00:44 33.37934 -84.02969 7440 ft 273 kts 354°
2026-04-17 00:44 33.39850 -84.03010 7335 ft 277 kts 357°
2026-04-17 00:44 33.41786 -84.03021 7215 ft 277 kts 357°
2026-04-17 00:45 33.43712 -84.03044 7081 ft 277 kts 356°
2026-04-17 00:45 33.45635 -84.03076 6970 ft 276 kts 356°
2026-04-17 00:45 33.47552 -84.03149 6857 ft 274 kts 354°
2026-04-17 00:45 33.49450 -84.03299 6761 ft 273 kts 353°
2026-04-17 00:46 33.51340 -84.03470 6656 ft 272 kts 353°
2026-04-17 00:46 33.53199 -84.03639 6559 ft 270 kts 353°
2026-04-17 00:46 33.55064 -84.03810 6453 ft 267 kts 353°
2026-04-17 00:46 33.56901 -84.03984 6336 ft 264 kts 353°
2026-04-17 00:47 33.58684 -84.04372 6225 ft 260 kts 333°
2026-04-17 00:47 33.60097 -84.05658 6154 ft 255 kts 305°
2026-04-17 00:47 33.60992 -84.07489 6087 ft 255 kts 295°
2026-04-17 00:47 33.61778 -84.09405 6024 ft 256 kts 295°
2026-04-17 00:48 33.62550 -84.11327 6026 ft 254 kts 294°
2026-04-17 00:48 33.63306 -84.13219 6002 ft 246 kts 294°
2026-04-17 00:48 33.64024 -84.15015 5931 ft 231 kts 294°
2026-04-17 00:48 33.64701 -84.16702 5748 ft 220 kts 294°
2026-04-17 00:49 33.65296 -84.18374 5342 ft 217 kts 281°
2026-04-17 00:49 33.65257 -84.19933 4947 ft 217 kts 252°
2026-04-17 00:49 33.64410 -84.21401 4577 ft 214 kts 221°
2026-04-17 00:49 33.63380 -84.22550 4424 ft 193 kts 243°
2026-04-17 00:50 33.63188 -84.24022 4273 ft 172 kts 274°
2026-04-17 00:50 33.63223 -84.25433 3885 ft 168 kts 268°
2026-04-17 00:50 33.63206 -84.26813 3510 ft 159 kts 268°
2026-04-17 00:50 33.63199 -84.28086 3209 ft 145 kts 268°
2026-04-17 00:51 33.63196 -84.29304 3020 ft 147 kts 268°
2026-04-17 00:51 33.63194 -84.30523 2825 ft 146 kts 267°
2026-04-17 00:51 33.63192 -84.31729 2634 ft 142 kts 266°
2026-04-17 00:51 33.63190 -84.32907 2458 ft 141 kts 268°
2026-04-17 00:52 33.63189 -84.34087 2276 ft 141 kts 267°
2026-04-17 00:52 33.63188 -84.35270 2085 ft 142 kts 267°
2026-04-17 00:52 33.63186 -84.36446 1894 ft 140 kts 266°
2026-04-17 00:52 33.63185 -84.37607 1720 ft 143 kts 268°
2026-04-17 00:53 33.63185 -84.38826 1530 ft 149 kts 269°
2026-04-17 00:53 33.63152 -84.40075 1330 ft 150 kts 265°
2026-04-17 00:53 33.63186 -84.41327 1139 ft 149 kts 265°
2026-04-17 00:53 33.63182 -84.42554 1007 ft 140 kts 268°
2026-04-17 00:54 33.63183 -84.43580 1007 ft 102 kts 270°
2026-04-17 00:54 33.63183 -84.44252 1003 ft 59 kts 269°
2026-04-17 00:54 33.63181 -84.44559 1005 ft 15 kts 270°
2026-04-17 00:54 33.63181 -84.44605 1006 ft 14 kts 270°
2026-04-17 00:55 33.63222 -84.44771 1006 ft 23 kts 336°
2026-04-17 00:55 33.63377 -84.44781 1005 ft 22 kts
2026-04-17 00:55 33.63532 -84.44781 1005 ft 24 kts 360°
2026-04-17 00:55 33.63659 -84.44693 1005 ft 24 kts 85°
2026-04-17 00:56 33.63663 -84.44480 1005 ft 27 kts 91°
2026-04-17 00:56 33.63664 -84.44213 1006 ft 36 kts 89°
2026-04-17 00:56 33.63664 -84.43907 1005 ft 36 kts 90°
2026-04-17 00:56 33.63730 -84.43721 1005 ft 23 kts
2026-04-17 00:57 33.63890 -84.43721 1005 ft 22 kts
2026-04-17 00:57 33.63950 -84.43720 1005 ft 0 kts
2026-04-17 00:57 33.63957 -84.43713 1005 ft 5 kts 41°
2026-04-17 00:58 33.63958 -84.43669 1005 ft 5 kts 91°
2026-04-17 00:58 33.63958 -84.43653 1005 ft 1 kts 89°
2026-04-17 00:58 33.63958 -84.43652 1005 ft 0 kts 90°